Date,TemperatureHighF,TemperatureAvgF,TemperatureLowF,DewpointHighF,DewpointAvgF,DewpointLowF,HumidityHigh,HumidityAvg,HumidityLow,PressureMaxIn,PressureMinIn,WindSpeedMaxMPH,WindSpeedAvgMPH,GustSpeedMaxMPH,PrecipitationSumIn
2013-1-3,79,73,70,66,66,60,86,79,60,30.18,30.12,0,0,0,0.00
2013-1-4,81,73,67,71,67,65,95,83,66,30.27,30.15,6,1,6,0.08
2013-1-5,75,70,66,71,67,65,95,92,80,30.30,30.21,9,2,9,0.04
2013-1-6,80,72,66,73,68,64,98,87,73,30.24,30.12,8,2,8,0.00
2013-1-7,74,71,68,71,69,67,96,94,87,30.21,30.12,5,0,5,0.28
2013-1-8,80,74,70,75,71,69,98,91,75,30.24,30.15,8,2,8,0.08
2013-1-9,82,76,73,72,70,68,94,82,69,30.33,30.21,9,3,9,0.00
2013-1-10,74,74,73,68,66,64,82,78,73,30.33,30.30,7,2,7,0.00
2013-1-11,80,75,72,70,67,65,86,77,69,30.30,30.21,9,2,9,0.00
2013-1-12,80,74,69,68,66,64,87,77,62,30.21,30.15,4,1,4,0.00
2013-1-13,80,74,69,69,65,61,87,73,60,30.18,30.12,11,2,11,0.00
2013-1-14,79,75,67,66,64,61,88,69,61,30.21,30.18,5,2,5,0.00
2013-1-15,79,74,68,67,65,63,85,73,61,30.18,30.09,8,2,8,0.00
2013-1-16,80,71,66,71,65,62,97,82,68,30.15,30.06,0,0,0,0.00
2013-1-17,78,72,63,72,66,49,98,84,63,30.15,30.00,10,2,10,0.08
2013-1-18,71,63,54,58,51,43,75,64,56,30.30,30.15,10,4,10,0.00
2013-1-19,71,68,66,68,63,57,97,84,67,30.27,30.15,5,0,5,0.24
2013-1-20,76,70,65,70,67,64,98,89,76,30.18,30.06,8,1,8,0.04
2013-1-21,77,71,66,72,68,64,98,91,78,30.12,30.00,5,0,5,0.16
2013-1-22,74,68,63,64,57,48,94,69,50,30.18,30.06,12,4,12,0.00
2013-1-23,73,67,62,57,52,49,73,61,45,30.33,30.18,11,3,11,0.00
2013-1-24,73,65,60,54,49,39,77,58,38,30.36,30.24,9,2,9,0.00
2013-1-25,75,66,59,59,53,48,79,64,48,30.36,30.24,9,1,9,0.00
2013-1-26,75,67,60,59,56,49,87,69,48,30.30,30.21,9,1,9,0.00
2013-1-27,76,69,62,62,58,54,86,68,46,30.33,30.24,8,2,8,0.00
2013-1-28,79,73,69,66,62,59,81,69,55,30.36,30.27,9,2,9,0.00
2013-1-29,80,74,71,71,66,63,89,78,65,30.30,30.18,10,2,10,0.00
2013-1-30,79,73,70,68,64,62,90,74,61,30.18,30.00,9,3,232,0.00
2013-1-31,70,67,59,69,58,36,98,75,40,30.24,30.00,11,2,11,0.00
2013-2-1,71,62,54,52,45,33,65,54,40,30.33,30.21,17,4,17,0.00
2013-2-2,73,64,56,54,46,33,82,53,41,30.33,30.18,8,2,8,0.00
2013-2-3,72,62,57,54,47,36,86,60,27,30.21,30.12,10,1,10,0.00
2013-2-4,72,62,52,54,47,38,76,59,35,30.21,30.06,5,1,6,0.00
2013-2-5,76,66,56,62,58,52,92,76,58,30.12,30.06,5,1,5,0.00
2013-2-6,76,67,63,65,61,58,91,82,61,30.15,30.06,5,0,5,0.00
2013-2-7,75,73,66,65,64,60,88,74,70,30.12,29.97,6,2,6,0.00
2013-2-8,81,73,68,71,65,58,97,78,50,30.09,29.97,9,2,10,0.00
2013-2-9,77,71,66,66,62,58,93,73,57,30.21,30.06,9,2,9,0.00
2013-2-10,76,71,68,62,60,56,78,67,59,30.30,30.21,8,3,8,0.00
2013-2-11,79,72,69,65,61,59,79,68,59,30.27,30.15,9,3,9,0.00
2013-2-12,83,73,65,69,66,62,92,79,58,30.18,30.03,10,1,10,0.00
2013-2-13,71,69,69,68,67,66,94,91,88,30.06,30.00,4,0,4,0.00
2013-2-14,80,70,64,72,67,63,98,91,75,30.06,29.88,14,4,15,1.50
2013-2-15,71,67,64,68,65,63,98,94,80,30.09,29.97,7,0,7,0.28
2013-2-16,71,65,56,65,55,40,97,74,38,30.09,29.91,12,3,12,0.00
2013-2-17,59,52,46,40,26,19,55,37,26,30.36,30.09,15,6,15,0.00
2013-2-18,69,66,65,55,50,45,67,57,44,30.30,30.27,7,3,8,0.00
2013-2-19,79,70,60,65,58,51,84,67,58,30.27,30.12,9,3,9,0.00
2013-2-20,79,70,65,66,63,57,93,80,55,30.18,30.06,8,1,8,0.00
2013-2-21,81,72,66,67,64,63,91,80,62,30.12,30.03,6,2,8,0.00
2013-2-22,83,76,70,72,69,65,93,80,65,30.15,30.09,10,4,10,0.00
2013-2-23,84,76,72,72,70,67,94,81,66,30.09,29.97,11,3,11,0.71
2013-2-24,85,76,71,74,71,67,98,85,59,30.03,29.94,8,1,8,0.00
2013-2-25,76,75,75,74,70,70,95,85,85,29.97,29.91,5,0,5,0.00
2013-2-26,81,80,80,70,68,68,69,66,66,29.94,29.85,13,4,13,0.00
2013-2-27,80,74,65,68,65,58,94,74,56,30.03,29.91,8,2,8,0.12
2013-2-28,70,65,61,65,52,45,94,64,40,30.06,29.94,13,2,13,0.00
2013-3-1,67,63,59,55,49,42,73,60,46,30.03,29.94,9,2,9,0.00
2013-3-2,66,59,54,47,37,31,64,45,35,30.09,30.00,13,4,13,0.00
2013-3-3,62,56,51,45,38,35,75,53,37,30.15,30.03,10,4,10,0.00
2013-3-4,67,54,44,43,34,29,68,48,28,30.24,30.15,8,5,8,0.00
2013-3-5,70,63,51,56,52,43,85,69,61,30.24,30.12,6,2,6,0.00
2013-3-6,69,62,59,61,57,54,92,84,70,30.15,30.06,3,1,3,0.00
2013-3-7,61,60,59,53,53,52,80,78,74,30.24,30.21,0,0,0,0.00
2013-3-8,61,57,55,52,50,48,82,78,69,30.24,30.18,6,1,6,0.00
2013-3-10,76,72,69,58,55,50,67,56,46,30.21,30.12,11,4,11,0.00
2013-3-11,79,73,67,60,58,55,70,59,45,30.18,30.03,8,4,8,0.00
2013-3-12,81,73,69,69,64,60,80,73,63,30.06,29.97,8,4,8,0.00
2013-3-13,71,70,67,65,63,59,82,80,76,30.03,30.03,0,0,0,0.00
2013-3-15,73,71,66,48,48,44,51,43,38,30.30,30.21,11,2,11,0.00
2013-3-16,76,71,64,55,50,48,75,48,42,30.24,30.12,9,2,9,0.00
2013-3-17,79,69,62,60,56,52,86,65,46,30.21,30.09,10,2,10,0.00
2013-3-18,82,71,66,70,64,58,91,79,61,30.12,30.00,10,2,10,0.31
2013-3-19,79,74,69,70,66,64,98,80,62,30.06,29.91,10,1,10,0.04
2013-3-20,71,68,66,69,66,63,95,93,87,30.00,29.97,0,0,0,0.00
2013-3-22,78,74,68,68,62,56,87,67,48,30.06,29.97,9,4,10,0.00
2013-3-23,87,78,71,75,71,68,98,80,57,30.03,29.85,12,3,232,0.00
2013-3-24,90,81,73,74,70,63,98,72,44,29.94,29.74,14,4,17,0.04
2013-3-25,80,74,65,72,56,37,91,59,29,30.03,29.80,9,3,9,0.00
2013-3-26,65,63,60,38,37,34,40,38,35,30.06,30.03,12,5,12,0.00
2013-3-27,69,60,53,43,40,32,58,46,36,30.30,30.21,12,4,12,0.00
2013-3-28,73,61,53,47,41,31,70,50,27,30.30,30.24,8,3,8,0.00
2013-3-29,76,66,57,50,46,38,61,48,33,30.33,30.27,10,2,10,0.00
2013-3-30,78,68,58,56,50,46,84,57,34,30.33,30.21,7,0,7,0.00
2013-3-31,82,72,61,64,60,52,86,68,48,30.24,30.09,11,3,11,0.00
2013-4-1,82,74,69,71,67,60,93,80,49,30.12,29.97,9,3,9,0.00
2013-4-2,84,74,67,68,64,61,96,73,47,30.12,30.03,8,2,8,0.00
2013-4-3,86,77,70,69,66,62,86,71,48,30.12,30.03,10,3,10,0.00
2013-4-4,87,76,70,72,69,66,94,79,60,30.09,29.94,11,4,12,0.67
2013-4-5,72,69,66,68,66,65,95,91,84,30.00,29.85,9,1,9,0.12
2013-4-6,79,68,60,65,60,56,95,75,48,30.12,29.97,9,4,9,0.67
2013-4-7,78,74,69,63,61,57,75,64,51,30.15,30.06,8,3,8,0.00
2013-4-8,84,73,63,65,60,56,93,67,43,30.18,30.09,9,1,9,0.00
2013-4-9,84,76,71,68,65,60,84,69,48,30.21,30.09,9,2,9,0.08
2013-4-10,86,78,71,73,69,65,87,76,60,30.15,30.06,10,2,10,0.00
2013-4-11,86,80,75,73,71,69,87,73,60,30.06,29.94,13,5,13,0.00
2013-4-12,85,79,76,77,74,73,90,85,75,30.00,29.91,8,4,11,0.35
2013-4-13,86,77,73,75,71,65,95,84,67,30.00,29.91,8,1,8,0.04
2013-4-14,89,79,72,78,72,69,98,81,57,30.00,29.94,11,3,11,0.00
2013-4-15,92,79,73,77,72,66,95,82,55,30.12,29.97,15,2,15,0.55
2013-4-16,88,78,72,77,72,69,97,82,63,30.18,30.06,9,2,9,0.08
2013-4-17,86,78,72,69,67,64,86,68,48,30.15,30.06,9,3,9,0.00
2013-4-18,86,80,74,72,70,65,84,72,58,30.12,30.03,10,3,10,0.00
2013-4-19,80,77,76,72,71,70,89,81,76,30.06,30.03,8,4,8,0.00
2013-4-20,91,82,0,77,73,0,91,72,58,30.09,30.00,9,3,9,0.24
2013-4-22,87,78,72,74,69,66,94,74,55,30.09,29.97,6,2,6,0.04
2013-4-23,84,76,69,68,64,56,93,67,43,30.15,30.00,11,4,11,0.00
2013-4-24,74,73,73,59,58,57,62,60,58,30.15,30.09,6,2,6,0.00
2013-4-25,85,81,73,62,58,55,61,47,38,30.24,30.18,11,3,11,0.00
2013-4-26,77,72,67,65,61,58,84,68,60,30.27,30.18,8,0,8,0.00
2013-4-28,87,81,76,63,60,58,64,50,40,30.15,30.03,10,4,10,0.00
2013-4-29,81,78,73,70,65,60,78,65,60,30.09,29.97,7,4,7,0.00
2013-4-30,85,78,72,72,69,66,89,76,59,30.03,29.97,8,2,8,0.08
2013-5-1,73,73,73,70,70,69,89,89,89,30.03,30.03,0,0,0,0.00
2013-5-2,74,71,69,71,69,67,97,95,90,29.97,29.85,11,2,11,3.78
2013-5-3,87,76,69,72,69,65,98,81,49,29.85,29.71,8,1,10,3.58
2013-5-4,88,78,69,71,67,62,96,71,42,29.85,29.74,9,2,9,3.58
2013-5-5,84,75,70,68,60,47,92,64,30,29.97,29.83,9,3,9,3.58
2013-5-6,85,73,63,62,58,49,87,60,41,30.06,29.97,8,2,8,3.58
2013-5-7,88,79,70,62,57,52,63,47,30,30.12,30.03,10,2,10,0.00
2013-5-8,89,77,65,64,58,51,89,55,28,30.18,30.09,6,1,6,0.00
2013-5-9,88,80,69,71,66,57,77,61,53,30.18,30.12,7,2,7,0.00
2013-5-10,91,82,74,73,71,67,92,71,46,30.15,30.15,9,2,9,0.00
2013-5-11,90,81,75,79,73,70,93,79,58,30.15,30.03,11,2,11,0.08
2013-5-12,91,79,74,74,71,66,91,79,50,30.12,30.00,7,2,7,0.98
2013-5-13,87,79,73,72,68,64,94,71,48,30.15,30.09,12,4,12,0.00
2013-5-14,83,76,71,64,57,51,70,53,35,30.24,30.12,8,3,8,0.00
2013-5-15,73,72,70,56,55,53,61,54,51,30.21,30.18,4,1,4,0.00
2013-5-16,89,82,75,62,60,57,61,47,38,30.18,30.09,9,2,9,0.00
2013-5-17,90,80,71,72,68,61,85,68,49,30.12,30.06,8,2,8,0.00
2013-5-18,85,79,75,73,72,68,92,80,65,30.15,30.09,9,2,9,0.12
2013-5-19,91,82,76,70,68,66,80,65,44,30.15,30.06,6,2,6,0.00
2013-5-20,76,72,0,76,70,0,98,89,83,30.15,30.03,10,1,10,4.41
2013-5-21,87,81,74,78,72,68,97,74,57,30.09,29.97,8,3,8,4.41
2013-5-22,90,79,75,77,73,70,91,81,61,30.03,29.94,9,2,9,0.47
2013-5-23,94,85,74,76,70,63,95,64,37,30.06,29.97,10,2,10,0.00
2013-5-24,93,88,80,76,70,62,88,57,38,30.09,30.03,8,3,8,0.00
2013-5-27,88,85,82,71,69,68,68,60,54,30.21,30.12,10,4,10,0.00
2013-5-28,86,82,78,74,72,71,84,74,63,30.15,30.09,13,4,13,0.04
2013-5-29,84,78,72,76,72,68,96,83,62,30.15,30.09,13,3,13,0.51
2013-5-30,88,83,76,76,72,68,88,68,57,30.12,30.06,15,5,15,0.51
2013-5-31,88,85,83,75,74,73,75,70,63,30.12,30.06,13,4,13,0.00
2013-6-1,81,77,76,77,75,74,96,93,86,30.06,30.03,6,0,6,0.35
2013-6-2,92,81,74,77,74,70,97,82,59,30.06,29.97,4,1,4,0.00
2013-6-3,88,82,77,77,74,72,89,77,64,30.09,29.97,8,2,8,0.35
2013-6-4,79,76,75,76,74,74,96,94,89,30.09,30.06,0,0,0,0.04
2013-6-13,94,86,82,79,73,70,82,66,47,30.12,30.12,6,1,6,0.04
2013-6-14,88,86,84,75,74,73,76,69,64,30.00,0.00,5,3,5,0.00
2013-6-21,97,92,84,72,70,68,65,49,41,0.00,0.00,8,3,8,0.00
2013-6-22,95,93,90,73,71,68,55,49,43,0.00,0.00,8,4,8,0.00
2013-6-24,96,92,85,74,71,68,62,50,41,0.00,0.00,10,4,10,0.00
2013-6-26,97,91,87,75,74,69,66,59,42,30.12,0.00,6,3,6,0.00
2013-6-28,98,90,78,76,73,68,89,58,44,30.03,29.91,8,3,8,0.47
2013-6-29,94,80,76,81,75,72,92,85,57,29.97,29.91,6,0,6,0.83
2013-6-30,77,77,75,75,75,74,96,95,94,29.97,0.00,4,0,4,0.83
2013-7-1,86,82,77,78,76,72,96,84,76,30.09,29.97,13,2,13,0.83
2013-7-2,92,82,78,78,76,71,94,83,60,30.15,30.03,8,3,8,0.83
2013-7-4,95,91,86,77,74,72,68,59,53,30.18,30.15,13,8,13,0.08
2013-7-5,85,82,79,78,76,74,88,82,74,30.18,30.12,11,4,11,0.43
2013-7-7,93,91,86,76,74,71,67,58,53,30.15,30.09,10,4,10,0.43
2013-7-8,95,93,88,72,70,67,54,48,42,30.21,30.12,8,3,8,0.00
2013-7-9,90,88,79,76,72,68,86,60,49,30.18,30.09,6,2,6,0.00
2013-7-10,91,86,80,76,74,72,89,69,57,30.15,30.06,8,3,8,0.00
2013-7-11,93,91,85,77,75,72,76,60,52,30.06,30.00,10,3,10,0.00
2013-7-12,94,84,73,79,74,69,97,74,48,30.00,29.94,17,2,17,2.44
2013-7-13,83,76,74,77,74,72,97,92,74,30.06,30.00,6,1,6,3.55
2013-7-14,92,79,74,82,74,71,97,84,54,30.15,30.03,9,2,10,0.16
2013-7-15,93,83,73,82,74,72,96,76,51,30.15,30.06,6,1,6,0.16
2013-7-16,84,81,76,74,71,68,88,72,60,30.21,30.12,12,3,13,0.16
2013-7-17,84,80,75,76,74,72,94,84,71,30.21,30.09,6,3,6,0.20
2013-7-18,90,81,75,79,74,67,96,81,61,30.18,30.12,11,2,11,0.47
2013-7-19,89,81,75,80,76,73,97,85,65,30.18,30.09,8,2,8,0.20
2013-7-21,89,85,77,81,78,72,95,81,69,30.21,30.09,8,2,8,0.00
2013-7-22,77,77,77,72,72,72,85,85,85,30.21,30.12,2,0,2,0.00
2013-7-26,89,84,81,78,75,73,81,76,62,30.06,29.97,6,2,6,0.39
2013-7-27,92,81,78,78,76,74,91,84,62,30.06,29.97,10,1,10,0.75
2013-7-28,87,81,76,78,76,71,91,84,73,30.12,30.06,6,1,6,0.75
2013-7-29,94,84,77,79,76,75,95,80,57,30.18,30.06,7,1,7,0.75
2013-7-30,83,81,77,77,76,74,91,86,82,30.21,30.15,4,1,4,0.75
2013-8-3,0,0,0,0,0,0,0,0,100,30.21,30.12,6,1,6,1.30
2013-8-4,0,0,0,0,0,0,0,0,100,30.09,30.06,12,2,12,1.30
2013-8-6,0,0,0,0,0,0,0,0,100,30.03,29.94,7,2,7,0.08
2013-8-7,0,0,0,0,0,0,0,0,100,30.03,29.97,11,4,11,0.00
2013-8-9,0,0,0,0,0,0,0,0,100,30.12,30.06,12,4,12,0.20
2013-8-10,88,88,80,68,63,62,63,43,42,30.18,30.15,10,4,10,0.00
2013-8-11,97,92,78,77,75,60,75,58,49,30.18,30.12,9,3,9,0.00
2013-8-12,87,87,86,74,74,73,66,65,64,30.12,30.12,6,3,7,0.00
2013-8-13,89,88,88,77,76,76,69,68,67,30.06,30.06,5,3,5,0.00
2013-8-14,96,90,83,77,73,70,73,57,45,30.06,29.97,8,3,8,0.00
2013-8-15,88,84,82,76,74,73,81,73,67,30.12,30.00,4,0,4,0.35
2013-8-16,96,86,80,80,76,74,89,73,51,30.09,30.03,8,2,8,0.00
2013-8-17,84,83,83,78,78,77,84,83,79,30.09,30.06,4,4,4,0.00
2013-10-11,0,0,0,0,0,0,0,0,100,30.06,29.97,10,2,10,0.00
2013-10-12,0,0,0,0,0,0,0,0,100,30.06,30.00,8,1,9,0.00
2013-10-13,0,0,0,0,0,0,0,0,100,30.09,30.00,10,3,11,0.00
2013-10-14,0,0,0,0,0,0,0,0,100,30.03,29.94,8,3,8,0.00
2013-10-15,0,0,0,0,0,0,0,0,100,30.00,29.91,8,3,8,0.00
2013-10-16,0,0,0,0,0,0,0,0,100,30.00,29.94,6,1,6,0.00
2013-10-17,0,0,0,0,0,0,0,0,100,30.00,29.94,6,1,6,0.00
2013-10-18,0,0,0,0,0,0,0,0,100,30.03,29.94,7,1,7,0.00
2013-10-19,0,0,0,0,0,0,0,0,100,30.00,29.91,8,3,8,0.00
2013-10-20,0,0,0,0,0,0,0,0,100,30.00,29.91,7,2,7,0.00
2013-10-21,0,0,0,0,0,0,0,0,100,30.06,29.94,8,3,8,0.00
2013-10-22,0,0,0,0,0,0,0,0,100,30.00,29.88,8,2,8,0.00
2013-10-23,0,0,0,0,0,0,0,0,100,29.94,29.85,12,4,12,0.00
2013-10-24,0,0,0,0,0,0,0,0,100,30.12,30.03,11,4,11,0.00
2013-10-25,0,0,0,0,0,0,0,0,100,30.21,30.18,6,4,6,0.00
2013-11-3,0,0,0,0,0,0,0,0,100,30.03,30.00,12,4,12,0.00
2013-11-4,0,0,0,0,0,0,0,0,100,30.12,30.06,14,4,14,0.00
2013-11-5,0,0,0,0,0,0,0,0,100,30.15,30.06,14,4,14,0.00
2013-11-6,0,0,0,0,0,0,0,0,100,30.12,30.03,11,3,11,0.00
2013-11-7,0,0,0,0,0,0,0,0,100,30.06,29.97,9,3,9,0.00
2013-11-8,0,0,0,0,0,0,0,0,100,30.06,30.00,15,5,15,0.31
2013-11-9,0,0,0,0,0,0,0,0,100,30.15,30.06,14,3,14,0.71
2013-11-10,0,0,0,0,0,0,0,0,100,30.18,30.09,10,3,10,0.71
2013-11-11,0,0,0,0,0,0,0,0,100,30.18,30.09,10,2,10,0.00
2013-11-12,0,0,0,0,0,0,0,0,100,30.12,30.00,9,2,9,0.00
2013-11-13,0,0,0,0,0,0,0,0,100,30.24,30.12,17,7,17,0.00
2013-11-14,0,0,0,0,0,0,0,0,100,30.30,30.21,11,4,13,0.00
2013-11-15,0,0,0,0,0,0,0,0,100,30.18,30.09,13,3,13,0.00
2013-11-16,0,0,0,0,0,0,0,0,100,30.15,30.06,8,3,8,0.08
2013-11-17,0,0,0,0,0,0,0,0,100,30.12,30.03,9,3,9,0.08
2013-11-18,0,0,0,0,0,0,0,0,100,30.06,29.97,8,0,8,0.04
2013-11-19,0,0,0,0,0,0,0,0,100,29.97,29.88,8,2,8,2.13
2013-11-20,0,0,0,0,0,0,0,0,100,30.09,30.00,6,1,6,2.13
2013-11-21,0,0,0,0,0,0,0,0,100,30.18,30.12,8,2,8,0.79
2013-11-22,0,0,0,0,0,0,0,0,100,30.21,30.12,14,4,14,0.79
2013-11-23,0,0,0,0,0,0,0,0,100,30.12,30.00,8,2,8,0.00
2013-11-25,0,0,0,0,0,0,0,0,100,30.24,30.15,13,4,13,0.00
2013-11-26,0,0,0,0,0,0,0,0,100,30.03,29.88,11,4,11,0.00
2013-11-27,0,0,0,0,0,0,0,0,100,30.00,29.88,10,3,10,0.04
2013-11-28,0,0,0,0,0,0,0,0,100,30.30,30.21,13,4,13,0.04
2013-11-29,0,0,0,0,0,0,0,0,100,30.33,30.24,13,4,13,0.00
2013-11-30,0,0,0,0,0,0,0,0,100,30.27,30.15,14,4,14,0.08
2013-12-1,0,0,0,0,0,0,0,0,100,30.15,30.03,10,1,10,0.63
2013-12-2,0,0,0,0,0,0,0,0,100,29.97,29.85,9,2,9,0.67
2013-12-3,0,0,0,0,0,0,0,0,100,30.03,29.97,5,1,5,0.00
2013-12-4,0,0,0,0,0,0,0,0,100,30.12,30.06,6,1,6,0.00
2013-12-5,0,0,0,0,0,0,0,0,100,30.21,30.12,8,3,8,0.00
2013-12-6,0,0,0,0,0,0,0,0,100,30.24,30.15,9,2,9,0.00
2013-12-7,0,0,0,0,0,0,0,0,100,30.27,30.18,6,2,6,0.04
2013-12-8,0,0,0,0,0,0,0,0,100,30.27,30.18,9,3,9,0.04
2013-12-9,0,0,0,0,0,0,0,0,100,30.24,30.15,9,3,9,0.00
2013-12-10,0,0,0,0,0,0,0,0,100,30.21,30.12,6,2,6,0.00
2013-12-11,0,0,0,0,0,0,0,0,100,30.24,30.18,8,1,8,0.00
2013-12-12,0,0,0,0,0,0,0,0,100,30.27,30.21,17,6,17,0.00
2013-12-13,0,0,0,0,0,0,0,0,100,30.24,30.15,11,3,11,0.00
2013-12-14,0,0,0,0,0,0,0,0,100,30.15,30.03,12,3,12,18.19
2013-12-15,0,0,0,0,0,0,0,0,100,30.09,29.97,12,2,12,0.00
2013-12-16,0,0,0,0,0,0,0,0,100,30.18,30.12,8,4,8,0.00
2013-12-17,0,0,0,0,0,0,0,0,100,30.24,30.15,10,3,10,0.00
2013-12-18,0,0,0,0,0,0,0,0,100,30.30,30.21,12,5,12,0.00
2013-12-19,0,0,0,0,0,0,0,0,100,30.30,30.27,8,3,8,0.00
2013-12-20,0,0,0,0,0,0,0,0,100,30.24,30.24,6,5,6,0.00
2013-12-21,0,0,0,0,0,0,0,0,100,30.18,30.18,5,3,5,0.00
2013-12-22,0,0,0,0,0,0,0,0,100,30.21,30.15,13,4,13,0.00
2013-12-23,0,0,0,0,0,0,0,0,100,30.21,30.15,10,4,10,0.00
2013-12-24,0,0,0,0,0,0,0,0,100,30.21,30.18,9,2,9,0.00
2013-12-25,0,0,0,0,0,0,0,0,100,30.21,30.15,11,3,11,0.00
2013-12-26,0,0,0,0,0,0,0,0,100,30.21,30.12,8,2,8,0.00
2013-12-27,0,0,0,0,0,0,0,0,100,30.24,30.15,8,2,8,0.00
2013-12-28,0,0,0,0,0,0,0,0,100,30.21,30.09,10,3,10,0.00
2013-12-29,0,0,0,0,0,0,0,0,100,30.09,29.97,10,3,10,0.00
2013-12-30,0,0,0,0,0,0,0,0,100,30.15,30.06,8,2,8,0.00
2013-12-31,0,0,0,0,0,0,0,0,100,30.27,30.21,14,4,14,0.00
2014-1-1,0,0,0,0,0,0,0,0,100,30.24,30.12,7,2,7,0.00
2014-1-2,0,0,0,0,0,0,0,0,100,30.06,29.91,11,3,11,0.00